EW3163 Weather Reports


Display with metric or nautical units.
time (UTC)temp
F
wind
direction
speed
MPH
gust
MPH
rain 1hr
in
rain 24hr
in
rain mn
in
humidity
%
barometer
mb
20260905061613 0 0.0 0.0 0.00 0.00 0.00 1016.2
20260905060056 0 0.0 0.0 0.00 0.00 0.00 1016.0
20260905054552 0 0.0 0.0 0.00 0.00 0.00 1015.8
20260905053052 0 0.0 0.0 0.00 0.00 0.00 1015.7
20260905051546 54 315 0.0 3.0 0.00 0.00 0.00 80 1015.5
20260905050042 54 11 0.0 1.0 0.00 0.00 0.00 81 1015.2
20260905044540 54 27 0.0 3.0 0.00 0.00 0.00 81 1015.1
20260905043105 55 49 0.0 1.0 0.00 0.00 0.00 82 1014.8
20260905041538 55 6 0.0 2.0 0.00 0.00 0.00 82 1014.9
20260905040046 55 1 0.0 1.0 0.00 0.00 0.00 82 1014.6
20260905034534 55 98 0.0 2.0 0.00 0.00 0.00 80 1014.6
20260905033041 55 321 0.0 2.0 0.00 0.00 0.00 80 1014.4
20260905031530 55 349 0.0 1.0 0.00 0.00 0.00 80 1014.1
20260905030027 55 14 0.0 3.0 0.00 0.00 0.00 81 1014.1
20260905024527 55 13 0.0 2.0 0.00 0.00 0.00 81 1013.9
20260905023025 55 2 0.0 0.0 0.00 0.00 0.00 81 1013.7
20260905021526 55 26 0.0 1.0 0.00 0.00 0.00 81 1013.7
20260905020021 56 338 0.0 1.0 0.00 0.00 0.00 81 1013.4
20260905014521 56 321 0.0 4.0 0.00 0.00 0.00 81 1013.6
20260905013020 56 352 0.0 1.0 0.00 0.00 0.00 80 1013.5
20260905011516 56 317 0.0 8.0 0.00 0.00 0.00 79 1013.1
20260905010019 56 68 0.0 6.0 0.00 0.00 0.00 80 1012.9
20260905004514 56 330 0.0 1.0 0.00 0.00 0.00 81 1012.8
20260905003018 56 93 0.0 1.0 0.00 0.00 0.00 82 1013.0
20260905001510 56 27 0.0 4.0 0.00 0.00 0.00 81 1012.6
20260905000018 57 63 0.0 1.0 0.00 0.00 0.00 84 1012.2
20260904234504 57 259 0.0 4.0 0.00 0.01 0.00 84 1012.1
20260904233107 57 23 0.0 2.0 0.00 0.01 0.00 82 1011.9
20260904231600 58 342 0.0 2.0 0.00 0.01 0.00 81 1011.9
20260904230107 58 43 0.0 0.0 0.00 0.01 0.00 78 1011.9
20260904224555 58 37 0.0 1.0 0.00 0.02 0.01 77 1011.7
20260904223047 58 27 0.0 3.0 0.00 0.02 0.01 78 1011.7
20260904221542 58 85 0.0 4.0 0.00 0.02 0.01 78 1011.7
20260904220055 58 134 0.0 5.0 0.00 0.02 0.01 78 1011.6
20260904214537 58 193 0.0 1.0 0.00 0.02 0.01 79 1011.5
20260904213030 58 108 0.0 2.0 0.00 0.02 0.01 79 1011.7
20260904211531 58 8 0.0 1.0 0.00 0.02 0.01 79 1011.7
20260904210024 58 124 0.0 0.0 0.00 0.02 0.01 80 1011.5
20260904204516 58 23 0.0 0.0 0.00 0.02 0.01 80 1011.4
20260904203018 58 129 0.0 0.0 0.00 0.02 0.01 80 1011.3
20260904201507 59 122 0.0 0.0 0.00 0.02 0.01 79 1010.9
20260904200006 59 359 0.0 1.0 0.00 0.02 0.01 79 1010.7
20260904194610 59 13 0.0 2.0 0.00 0.02 0.01 79 1010.7
20260904193058 60 322 0.0 5.0 0.00 0.02 0.01 77 1010.7
20260904191553 60 235 0.0 2.0 0.00 0.02 0.01 76 1010.4
20260904190048 60 60 0.0 6.0 0.00 0.02 0.01 77 1010.2
20260904184551 61 83 0.0 3.0 0.00 0.02 0.01 76 1009.8
20260904183037 61 17 0.0 5.0 0.00 0.02 0.01 75 1009.7
20260904181533 62 304 0.0 4.0 0.00 0.02 0.01 72 1009.5
20260904180027 63 20 0.0 1.0 0.00 0.02 0.01 68 1009.4
20260904174523 63 13 0.0 2.0 0.00 0.02 0.01 67 1009.3
20260904173034 64 30 0.0 8.0 0.00 0.02 0.01 64 1008.9
20260904171516 64 321 0.0 4.0 0.00 0.02 0.01 61 1008.8
20260904170015 65 305 0.0 3.0 0.00 0.02 0.01 59 1008.5
20260904164507 65 13 0.0 5.0 0.00 0.02 0.01 58 1008.5
20260904163100 66 15 1.0 10.0 0.00 0.02 0.01 57 1008.5
20260904161618 66 319 1.0 8.0 0.00 0.02 0.01 57 1008.2
20260904160052 66 132 1.0 10.0 0.00 0.02 0.01 56 1008.0
20260904154549 66 119 0.0 7.0 0.00 0.02 0.01 57 1007.7
20260904153050 66 11 1.0 11.0 0.00 0.02 0.01 59 1007.7
20260904151538 65 1 0.0 7.0 0.00 0.02 0.01 61 1007.6
20260904150036 66 21 0.0 8.0 0.00 0.02 0.01 59 1007.3
20260904144529 66 294 0.0 8.0 0.00 0.02 0.01 57 1007.0
20260904143024 66 358 1.0 6.0 0.00 0.02 0.01 55 1006.6
20260904141531 67 35 2.0 10.0 0.00 0.02 0.01 53 1006.1
20260904140035 67 293 1.0 7.0 0.00 0.02 0.01 53 1005.9
20260904134512 67 113 0.0 9.0 0.00 0.02 0.01 53 1005.5
20260904133009 67 324 0.0 8.0 0.00 0.02 0.01 59 1005.3
20260904131502 66 16 2.0 11.0 0.00 0.02 0.01 55 1005.0
20260904130058 66 115 0.0 12.0 0.00 0.02 0.01 59 1005.1
20260904124602 65 74 1.0 10.0 0.00 0.02 0.01 62 1004.6
20260904123049 65 101 0.0 16.0 0.00 0.02 0.01 68 1004.9
20260904121545 65 349 1.0 14.0 0.00 0.02 0.01 65 1004.7
20260904120048 65 306 0.0 5.0 0.00 0.02 0.01 67 1004.7
20260904114541 65 326 1.0 8.0 0.00 0.02 0.01 65 1004.6
20260904113033 65 223 0.0 8.0 0.00 0.02 0.01 65 1004.4
20260904111526 66 41 0.0 7.0 0.00 0.02 0.01 65 1004.3
20260904110021 65 42 0.0 7.0 0.00 0.02 0.01 69 1004.4
20260904104517 63 87 0.0 4.0 0.00 0.02 0.01 73 1004.4
20260904103013 63 99 0.0 5.0 0.00 0.02 0.01 71 1004.1
20260904101507 63 77 0.0 8.0 0.00 0.02 0.01 71 1004.2
20260904100002 63 331 1.0 12.0 0.00 0.02 0.01 68 1003.9
20260904094558 64 27 0.0 7.0 0.00 0.02 0.01 69 1004.0
20260904093054 63 50 1.0 12.0 0.00 0.02 0.01 71 1004.0
20260904091550 62 8 0.0 4.0 0.00 0.02 0.01 73 1004.1
20260904090046 61 85 0.0 1.0 0.00 0.02 0.01 75 1004.1
20260904084541 61 137 0.0 2.0 0.00 0.02 0.01 76 1004.1
20260904083036 60 333 0.0 1.0 0.00 0.02 0.01 76 1003.9
20260904081532 60 30 0.0 2.0 0.00 0.02 0.01 78 1003.9
20260904080027 59 176 0.0 4.0 0.00 0.02 0.01 79 1003.9
20260904074522 59 40 0.0 1.0 0.00 0.02 0.01 81 1003.9
20260904073018 58 34 0.0 2.0 0.00 0.02 0.01 82 1003.6
20260904071516 57 41 0.0 3.0 0.00 0.02 0.01 88 1003.6
20260904070009 58 111 0.0 0.0 0.00 0.02 0.01 94 1003.6
20260904064504 58 111 0.0 0.0 0.00 0.02 0.01 94 1003.4
20260904063126 0 0.0 0.0 0.00 0.02 0.01 1003.2